Wind_Speed
7 6 5 4 4 4 3 2 1 1 1 1 2 1 1 3 4 4 5 6 5 3 6 10 13 15 15 11 8 4 9 7 5 3 6 8 4 3 3 3 3 6 2 4 8
8 8 7 7 6 7 6 5 4 3 3 2 2 3 3 2 2 1 2 4 5 4 5 9 14 17 17 13 10 8 6 9 10 12 13 9 5 5 9 11 4 6 4 1 5
10 10 10 9 8 9 8 7 6 6 5 4 3 3 3 3 4 4 2 2 3 3 3 7 13 20 19 15 11 7 2 6 7 15 19 15 12 13 8 7 5 2 1 2 5
12 12 11 10 10 10 10 10 9 8 7 7 5 4 4 4 3 4 4 4 3 3 3 5 10 17 19 15 11 9 6 9 12 12 15 23 19 15 10 4 4 3 3 2 6
13 13 12 11 11 11 12 12 10 10 9 9 7 7 5 5 6 5 4 6 5 4 3 5 8 17 19 17 16 12 9 9 12 12 8 7 7 12 10 10 8 3 3 3 5
14 14 13 12 12 13 13 13 12 11 11 10 10 9 8 7 8 7 6 5 6 6 4 5 12 17 22 21 18 15 14 11 8 8 12 9 7 9 14 11 9 5 6 6 4
16 16 15 14 14 14 14 14 14 13 13 12 11 11 10 10 8 9 8 7 6 7 7 9 13 15 24 23 20 15 15 13 14 11 13 13 6 11 12 13 12 11 10 5 9
17 17 16 15 15 16 15 16 15 15 14 13 12 11 10 11 10 9 9 8 7 6 8 10 12 14 14 19 14 12 10 12 4 10 14 18 9 11 14 17 16 14 10 7 8
18 17 17 15 15 16 16 16 15 15 15 14 12 12 12 9 10 13 11 10 8 7 7 9 12 14 11 11 11 12 10 13 12 18 16 8 10 11 11 16 18 15 15 15 8
18 17 16 15 15 16 16 15 15 15 16 15 14 11 12 11 13 12 15 12 11 10 10 11 12 10 10 10 3 7 5 11 12 16 18 18 7 7 9 17 20 19 16 17 9
17 17 15 15 14 15 15 14 15 16 17 16 12 13 11 15 12 10 14 16 16 14 15 13 11 11 3 5 11 9 8 13 9 14 14 15 9 12 13 19 24 25 18 23 17
17 16 15 15 15 14 15 14 14 15 15 16 16 16 17 16 14 17 16 13 14 14 14 14 13 3 7 7 8 10 12 12 13 13 19 19 15 18 16 21 22 26 18 17 17
17 16 18 16 14 14 14 12 11 13 17 13 17 17 19 20 16 13 13 11 12 13 11 13 4 12 10 8 6 9 12 11 16 16 16 11 12 10 9 13 20 28 23 21 15
19 21 17 14 16 15 16 9 10 12 11 12 12 17 21 22 23 15 12 9 11 8 10 13 13 13 9 8 4 10 4 13 12 15 14 13 4 9 3 7 17 26 23 15 16
22 20 16 16 17 17 16 9 9 6 4 3 8 11 18 28 12 8 15 15 13 10 11 9 4 6 12 11 9 15 14 19 18 11 8 9 5 5 12 18 13 14 15 8 8
19 18 18 19 19 20 15 11 10 4 7 2 5 8 13 26 27 14 13 17 16 16 18 19 16 19 16 16 12 12 16 16 15 11 4 8 6 7 10 11 9 11 12 3 4
19 18 17 17 19 18 14 13 8 8 6 2 8 11 10 11 22 21 14 18 22 16 20 18 22 21 20 17 13 13 13 4 4 2 5 2 5 6 11 11 7 7 8 2 4
20 19 17 19 18 16 14 17 11 7 12 8 6 15 18 15 15 26 27 19 19 22 23 13 17 9 18 20 14 15 13 12 5 3 5 12 4 4 8 9 11 9 10 1 5
20 19 18 22 21 19 19 21 14 10 7 12 5 6 15 22 18 10 22 23 23 22 26 7 10 11 8 12 7 8 17 16 12 3 1 6 7 4 10 11 11 11 13 5 1
15 15 18 23 22 23 24 26 17 13 11 6 6 7 5 5 15 19 19 19 25 23 21 28 26 18 13 14 15 15 21 7 8 3 3 3 5 9 8 10 13 15 14 15 4
11 13 16 19 23 25 29 27 26 17 17 9 9 7 4 3 2 5 11 19 16 13 26 32 31 25 20 11 11 13 12 15 9 6 7 3 5 4 11 10 9 12 18 19 20
9 13 14 19 22 28 31 28 29 21 22 16 14 12 5 4 8 5 12 12 1 8 17 25 18 32 27 17 14 15 13 19 20 8 7 5 7 6 12 16 12 14 21 19 12
11 15 15 18 12 19 21 24 26 24 20 16 15 16 12 6 5 6 11 12 7 3 7 10 24 31 28 24 15 9 7 15 25 27 12 5 12 16 20 19 16 17 16 14 15
14 15 18 18 14 11 13 17 19 21 22 20 22 20 18 14 9 9 13 12 13 5 3 9 19 30 29 20 6 9 6 8 3 8 17 19 22 17 20 22 18 20 15 13 14
18 16 23 22 18 15 14 11 12 14 17 11 12 14 13 18 14 17 18 20 16 13 7 7 11 17 29 29 21 15 14 8 9 5 6 11 18 17 22 19 19 14 14 10 16
11 17 23 18 23 19 18 16 15 15 14 16 17 19 13 13 17 15 17 12 9 14 10 6 4 4 4 9 9 14 14 10 7 11 13 16 16 19 15 21 24 11 6 14 14
12 14 22 22 17 18 19 19 19 17 14 16 15 19 13 11 18 17 20 20 12 9 12 6 5 4 3 4 6 6 8 6 4 7 10 13 17 17 17 22 18 10 7 10 18
Wind_Direction
228 235 240 239 253 261 263 271 280 325 303 255 234 238 149 105 96 94 81 77 70 84 139 149 161 159 151 167 197 112 99 93 114 126 329 317 172 305 253 282 356 335 340 44 47
235 233 242 245 246 259 266 271 269 266 268 267 259 247 230 203 178 150 108 81 62 72 139 144 154 162 159 182 202 169 81 16 345 320 317 326 278 285 264 287 268 305 238 112 72
232 236 236 241 248 255 261 264 264 263 262 265 257 253 243 225 219 209 176 129 81 78 140 143 161 165 162 184 199 190 220 318 356 323 305 295 287 230 266 261 174 258 162 69 85
234 236 238 245 247 253 256 260 257 259 258 255 249 243 234 226 207 211 201 182 157 116 132 141 168 174 170 185 205 222 256 319 322 322 297 285 294 257 246 316 181 209 152 133 114
234 237 239 244 247 249 253 257 258 260 258 255 249 240 231 219 206 184 192 177 182 186 151 140 179 186 176 188 208 221 249 275 324 338 327 297 291 255 229 223 218 240 172 199 163
235 239 240 244 250 250 252 255 256 257 257 254 249 240 233 230 214 217 210 198 196 206 182 164 179 188 187 196 208 223 245 258 299 306 310 303 280 229 224 216 203 175 142 173 189
233 237 239 241 246 250 251 253 254 254 256 255 253 248 236 231 220 208 215 211 211 209 202 193 195 188 194 199 213 225 247 245 262 275 292 295 250 239 225 213 206 215 200 193 281
235 237 239 241 244 247 248 251 251 255 255 256 254 253 242 235 226 230 224 219 216 225 226 215 221 216 199 199 218 222 245 257 23 286 291 277 258 236 251 238 229 241 234 226 323
239 236 237 240 243 248 248 251 253 253 256 255 252 250 242 233 224 231 228 229 227 226 226 232 236 239 240 231 232 231 242 257 321 328 334 298 228 236 251 259 253 237 217 249 313
241 237 234 236 237 243 247 252 253 251 251 252 250 247 236 223 218 216 227 229 227 231 232 232 236 236 239 234 214 197 258 293 327 334 325 312 243 188 243 286 260 237 256 254 303
240 237 231 232 231 237 242 246 250 251 246 245 244 235 240 229 213 205 224 229 230 227 226 238 244 246 251 242 241 254 271 301 322 332 330 340 286 234 261 273 242 239 262 252 283
238 236 236 231 228 234 240 245 258 263 255 253 245 241 237 236 226 209 216 227 230 237 233 242 246 241 201 214 231 252 284 301 307 330 330 314 296 289 292 294 273 243 268 273 279
244 241 234 227 232 236 243 248 263 275 278 241 255 245 229 236 235 237 215 227 239 245 241 250 211 193 189 198 245 243 274 299 302 321 326 327 299 281 282 270 264 240 250 273 293
246 240 233 237 239 241 247 255 271 281 287 270 251 248 226 232 240 231 223 215 233 250 245 258 217 235 229 211 259 285 313 310 309 310 320 314 289 302 269 296 269 246 252 274 310
241 241 239 237 243 244 252 252 263 278 331 280 230 223 215 221 232 232 239 232 243 252 257 255 222 214 224 216 279 286 294 293 298 318 297 290 287 287 264 279 289 251 237 287 340
247 242 243 236 238 241 244 238 236 223 253 225 221 218 217 215 227 250 211 226 246 259 264 266 259 252 241 217 248 281 290 283 293 289 275 299 315 329 306 289 273 226 220 312 358
252 247 238 234 233 237 232 222 213 210 234 199 198 225 222 212 218 216 217 216 231 238 256 271 269 268 248 246 223 268 278 298 335 9 214 324 324 304 297 269 249 223 218 26 0
248 245 236 233 229 227 222 206 210 240 219 205 224 226 216 208 223 221 234 236 244 250 253 275 292 261 227 237 265 278 263 239 198 192 270 309 257 261 277 204 225 208 226 340 341
242 237 228 227 223 217 216 205 217 228 212 235 227 206 216 224 231 253 238 244 242 239 230 236 263 293 256 230 226 279 291 269 241 256 281 291 277 249 212 216 198 201 215 197 103
246 233 218 220 216 213 214 218 214 213 211 218 206 185 170 208 227 235 231 236 242 247 251 253 268 295 245 257 245 288 282 221 214 148 229 244 259 234 216 217 210 224 191 205 227
235 223 215 212 209 210 214 217 219 222 225 233 221 213 227 322 177 202 216 241 248 270 263 255 254 272 285 279 250 315 258 223 245 201 165 175 250 241 214 215 237 239 217 227 258
213 197 197 195 203 211 218 218 224 225 232 241 237 245 264 265 302 262 194 182 245 306 262 250 245 254 270 264 264 291 291 252 238 238 210 228 227 254 207 211 220 227 225 235 255
194 193 169 181 193 224 233 233 238 238 229 240 233 232 224 233 291 224 228 215 218 16 4 284 234 243 265 268 273 259 301 256 246 259 264 202 268 253 211 215 213 220 234 249 245
189 186 177 178 187 195 213 225 230 238 238 234 236 225 230 239 229 248 238 240 227 245 333 291 238 234 233 251 205 199 288 1 334 267 269 263 279 262 233 239 232 223 236 250 262
196 200 196 205 211 228 230 228 233 247 233 221 232 233 248 257 248 249 255 258 235 250 263 306 255 227 237 245 240 238 256 304 332 308 336 311 298 295 271 249 228 218 233 295 259
223 211 206 215 220 233 238 242 247 236 242 232 246 230 240 258 247 256 262 270 271 240 256 285 249 177 173 186 215 223 237 272 319 325 284 321 308 286 251 234 222 231 275 262 247
242 226 217 219 211 220 227 228 235 245 238 239 256 242 238 265 249 237 251 250 268 268 286 279 250 215 170 250 271 254 231 240 321 335 331 315 279 293 264 241 215 238 209 174 175
Height
3162 3162 3163 3163 3163 3164 3164 3163 3163 3163 3163 3164 3165 3165 3166 3166 3166 3166 3166 3168 3167 3167 3168 3169 3170 3172 3175 3177 3177 3178 3178 3178 3180 3181 3181 3179 3179 3179 3180 3178 3177 3177 3177 3176 3174
3161 3162 3162 3162 3162 3163 3163 3163 3163 3163 3163 3163 3164 3164 3165 3166 3166 3166 3167 3166 3166 3167 3168 3169 3170 3172 3175 3177 3178 3178 3178 3177 3178 3178 3178 3178 3177 3178 3179 3177 3176 3177 3177 3176 3175
3160 3161 3161 3162 3162 3162 3162 3162 3162 3162 3162 3162 3163 3164 3164 3165 3166 3166 3166 3166 3167 3167 3168 3169 3171 3172 3175 3177 3178 3178 3179 3178 3177 3178 3176 3177 3177 3177 3177 3177 3176 3176 3176 3175 3175
3158 3159 3159 3160 3160 3161 3160 3161 3161 3161 3161 3162 3162 3163 3164 3164 3167 3165 3166 3166 3167 3167 3168 3169 3171 3173 3176 3177 3178 3178 3178 3179 3176 3176 3175 3174 3176 3175 3176 3176 3176 3177 3176 3175 3173
3156 3157 3157 3157 3158 3159 3159 3159 3159 3160 3160 3160 3161 3162 3163 3164 3165 3165 3165 3166 3167 3168 3168 3170 3173 3175 3177 3177 3177 3177 3177 3177 3177 3175 3175 3175 3175 3175 3176 3177 3177 3176 3175 3176 3176
3153 3154 3154 3155 3155 3156 3157 3157 3157 3158 3158 3158 3160 3161 3162 3164 3164 3164 3165 3166 3166 3168 3169 3170 3172 3173 3174 3174 3176 3175 3175 3175 3175 3175 3173 3173 3173 3174 3175 3175 3176 3176 3173 3173 3174
3151 3151 3152 3152 3153 3154 3154 3155 3155 3156 3156 3157 3158 3159 3160 3162 3162 3163 3164 3164 3165 3167 3168 3168 3170 3172 3172 3174 3175 3175 3174 3173 3174 3174 3172 3171 3172 3171 3173 3174 3173 3172 3171 3170 3169
3147 3148 3148 3149 3150 3151 3152 3152 3152 3154 3154 3155 3156 3157 3158 3159 3161 3161 3162 3163 3164 3165 3166 3167 3168 3170 3172 3173 3174 3174 3173 3172 3173 3173 3171 3168 3168 3170 3170 3170 3171 3170 3170 3170 3170
3145 3145 3146 3146 3147 3148 3148 3149 3150 3151 3152 3153 3154 3155 3156 3157 3159 3159 3160 3161 3162 3164 3165 3166 3167 3169 3169 3170 3172 3172 3171 3169 3170 3169 3167 3166 3165 3166 3167 3166 3166 3168 3169 3168 3168
3141 3142 3142 3143 3144 3145 3145 3146 3147 3148 3149 3150 3151 3155 3155 3155 3156 3158 3158 3160 3161 3162 3164 3166 3166 3166 3167 3168 3169 3169 3169 3167 3168 3169 3165 3167 3166 3166 3165 3164 3164 3165 3166 3166 3168
3138 3139 3140 3141 3142 3142 3143 3144 3147 3146 3146 3147 3148 3150 3151 3153 3155 3156 3156 3157 3159 3160 3162 3162 3164 3164 3165 3166 3167 3168 3168 3167 3166 3167 3166 3165 3162 3166 3165 3162 3164 3165 3166 3167 3168
3134 3136 3137 3138 3139 3139 3140 3141 3143 3144 3144 3143 3145 3146 3148 3150 3152 3153 3153 3156 3156 3158 3159 3161 3161 3163 3163 3164 3165 3166 3166 3166 3166 3166 3164 3162 3162 3162 3162 3160 3161 3164 3164 3166 3164
3131 3133 3136 3135 3136 3137 3138 3140 3141 3141 3140 3142 3141 3142 3146 3147 3149 3151 3152 3153 3154 3155 3157 3158 3161 3160 3161 3162 3163 3163 3164 3165 3165 3164 3163 3159 3159 3161 3160 3160 3159 3160 3161 3163 3163
3128 3131 3132 3131 3135 3134 3136 3139 3139 3139 3139 3138 3138 3139 3141 3143 3144 3149 3150 3152 3151 3153 3155 3155 3158 3158 3160 3161 3162 3162 3162 3162 3163 3162 3161 3160 3160 3160 3159 3158 3156 3158 3160 3162 3159
3125 3126 3126 3129 3131 3132 3135 3137 3137 3140 3140 3137 3134 3134 3136 3139 3143 3144 3147 3148 3150 3152 3154 3154 3155 3155 3156 3158 3160 3159 3159 3159 3159 3159 3159 3159 3160 3156 3154 3153 3154 3156 3158 3159 3159
3119 3121 3122 3126 3128 3129 3132 3135 3138 3142 3135 3132 3132 3132 3134 3135 3139 3142 3144 3146 3149 3150 3149 3149 3152 3152 3153 3154 3156 3157 3156 3155 3156 3157 3158 3158 3157 3156 3154 3151 3151 3155 3156 3156 3157
3113 3115 3118 3121 3123 3125 3129 3132 3137 3135 3132 3131 3130 3131 3132 3134 3136 3139 3141 3142 3145 3147 3146 3147 3145 3147 3150 3151 3153 3154 3155 3154 3156 3157 3158 3156 3155 3154 3153 3150 3150 3153 3154 3156 3157
3108 3110 3114 3116 3118 3121 3125 3129 3130 3127 3128 3128 3128 3129 3130 3133 3135 3137 3139 3141 3142 3143 3145 3144 3142 3143 3145 3148 3151 3152 3152 3154 3159 3160 3155 3154 3152 3151 3151 3150 3149 3151 3154 3157 3158
3104 3106 3109 3110 3114 3118 3122 3123 3123 3125 3125 3126 3128 3128 3128 3130 3133 3134 3136 3137 3139 3140 3144 3141 3139 3140 3142 3145 3148 3147 3148 3151 3151 3153 3154 3153 3152 3151 3150 3150 3150 3151 3151 3156 3157
3098 3100 3104 3106 3110 3114 3117 3117 3121 3122 3123 3125 3125 3126 3126 3127 3129 3130 3132 3132 3135 3137 3140 3139 3138 3137 3140 3142 3145 3145 3145 3147 3147 3152 3153 3151 3149 3147 3148 3149 3150 3149 3152 3153 3153
3094 3095 3098 3102 3106 3109 3110 3113 3117 3118 3120 3123 3124 3124 3125 3125 3126 3127 3130 3133 3134 3134 3134 3136 3138 3131 3136 3138 3140 3142 3140 3142 3144 3145 3146 3151 3147 3145 3147 3147 3148 3148 3148 3149 3148
3090 3093 3095 3097 3102 3102 3104 3108 3112 3114 3117 3119 3121 3122 3123 3123 3123 3125 3126 3129 3130 3129 3127 3128 3132 3130 3132 3136 3138 3138 3138 3138 3140 3142 3141 3141 3142 3141 3143 3144 3144 3145 3145 3146 3147
3089 3091 3092 3094 3098 3100 3103 3106 3108 3110 3114 3115 3116 3119 3121 3121 3123 3123 3124 3126 3127 3127 3125 3125 3126 3129 3129 3133 3134 3135 3135 3134 3136 3137 3138 3140 3139 3137 3138 3140 3141 3143 3144 3146 3147
3089 3090 3091 3092 3095 3097 3099 3101 3104 3106 3108 3110 3112 3115 3117 3117 3119 3119 3120 3121 3122 3122 3120 3121 3121 3124 3125 3127 3130 3132 3132 3133 3133 3133 3135 3135 3135 3135 3135 3137 3138 3142 3144 3142 3142
3087 3087 3088 3090 3092 3094 3096 3099 3101 3102 3104 3106 3108 3110 3111 3111 3113 3114 3116 3116 3118 3119 3120 3121 3119 3119 3121 3123 3126 3127 3129 3130 3131 3131 3131 3131 3131 3131 3131 3133 3136 3140 3142 3139 3138
3084 3086 3088 3088 3090 3093 3094 3096 3096 3097 3100 3102 3103 3105 3107 3108 3109 3109 3113 3114 3115 3116 3118 3119 3118 3116 3118 3122 3123 3123 3125 3127 3128 3127 3127 3127 3127 3128 3129 3132 3134 3138 3141 3140 3138
3081 3082 3085 3086 3088 3091 3091 3093 3093 3095 3098 3099 3100 3101 3103 3103 3103 3106 3108 3110 3112 3113 3114 3116 3115 3115 3116 3119 3120 3122 3122 3124 3126 3125 3125 3124 3125 3125 3125 3127 3134 3137 3139 3138 3137